SCP
0 0 0 0 0 0 0 0 0 0 -0 -0 -0 0 0 0 0 -0 0 0 0 0 0 0 0 0 0 0 0 0 0 0 0 0 0 0 0 0 0 0 0 0 0 0
0 0 0 0 0 0 0 0 0 0 -0 0 0 0 0 0 0 0 0 0 0 0 0 0 0 0 0 0 0 0 0 0 0 0 0 0 0 0 0 0 0 0 0 0
0 0 0 0 0 0 0 0 0 0 0 0 -0 0 0 0 0 0 0 0 0 0 0 0 0 0 0 0 0 0 0 0 0 0 0 0 0 0 0 0 0 0 0 0
0 0 0 0 0 0 0 0 0 0 -0 0 0 0 0 0 0 0 0 0 0 0 0 0 0 0 0 0 0 0 0 0 0 0 0 0 0 0 0 0 0 0 0 0
0 0 0 -0 0 0 0 0 0 0 0 0 0 0 0 0 0 0 0 0 0 0 0 0 0 0 0 0 0 0 0 0 0 0 0 0 0 0 0 0 0 0 0 0
0 0 0 -0 0 0 0 0 0 0 0 0 0 0 0 0 0 0 0 0 0 0 0 0 0 0 0 0 0 0 0 0 0 0 0 0 0 0 0 0 0 0 0 0
0 0 0 0 0 0 0 0 0 0 0 0 0 0 0 0 0 0 0 0 0 0 0 0 0 0 0 0 0 0 0 0 0 0 0 0 0 0 0 0 0 0 0 0
0 0 0 0 0 0 0 0 0 0 0 0 0 0 0 0 0 0 0 0 0 0 0 0 0 0 0 0 0 0 0 0 0 0 0 0 0 0 0 0 0 0 0 0
0 0 0 0 0 0 0 0 0 0 0 -0 -0 -0 0 0 0 0 0 0 0 0 0 0 0 0 0 0 0 0 0 0 0 0 0 0 0 0 0 0 0 0 0 0
0 0 0 0 0 0 0 0 0 0 0 0 -0 0 0 0 0 0 0 0 0 0 0 0 0 0 0 0 0 0 0 0 0 0 0 0 0 0 0 0 0 0 0 0
0 0 0 0 0 0 0 0 0 0 0 0 0 0 0 0 0 0 0 0 0 0 0 0 0 0 0 0 0 0 0 0 0 0 0 0 0 0 0 0 0 0 0 0
0 0 0 0 0 0 0 0 0 0 0 0 0 0 0 0 0 0 0 0 0 0 0 0 0 0 0 0 0 0 0 0 0 0 0 0 0 0 0 0 0 0 0 0
0 0 0 0 -0 0 0 0 0 0 0 0 0 0 0 0 0 0 0 0 0 0 0 0 0 0 0 0 0 0 0 0 0 0 0 0 0 0 0 0 0 0 0 0
0 0 0 0 -0 0 0 0 0 0 0 0 0 0 0 0 0 0 0 0 0 0 0 0 0 0 0 0 0 0 0 0 0 0 0 0 0 0 0 0 0 0 0 0
0 0 0 -0 0 0 0 0 0 0 0 0 0 0 0 0 0 0 0 0 0 0 0 0 0 0 0 0 0 0 0 0 0 0 0 0 0 0 0 0 0 0 0 0
0 0 0 0 0 0 0 0 0 0 0 0 0 0 0 0 0 0 0 0 0 0 0 0 0 0 0 0 0 0 0 0 0 0 0 0 0 0 0 0 0 0 0 0
0 0 0 0 0 0 0 0 0 0 0 0 0 0 0 0 0 0 0 0 0 0 0 0 0 0 0 0 0 0 0 0 0 0 0 0 0 0 0 0 0 0 0 0
0 0 0 0 0 0 0 0 0 0 0 0 0 0 0 0 0 0 0 0 0 0 0 0 0 0 0 0 0 0 0 0 0 0 0 0 0 0 0 0 0 0 0 0
0 0 0 0 0 0 0 0 0 0 0 0 0 0 0 0 0 0 0 0 0 0 0 0 0 0 0 0 0 0 0 0 0 0 0 0 0 0 0 0 0 0 0 0
0 0 0 0 0 0 0 0 0 0 0 0 0 0 0 0 0 0 0 0 0 0 0 0 0 0 0 0 0 0 0 0 0 0 0 0 0 0 0 0 0 0 0 0
0 0 0 0 0 0 0 0 0 0 0 0 0 0 0 0 0 0 0 0 0 0 0 0 0 0 0 0 0 0 0 0 0 0 0 0 0 0 0 0 0 0 0 0
0 0 0 0 0 0 0 0 0 0 0 0 0 0 0 0 0 0 0 0 0 0 0 0 0 0 0 0 0 0 0 0 0 0 0 0 0 0 0 0 0 0 0 0
0 0 0 0 0 0 0 0 0 0 0 0 0 0 0 0 0 0 0 0 0 0 0 0 0 0 0 0 0 0 0 0 0 0 0 0 0 0 0 0 0 0 0 0
0 0 0 0 0 0 0 0 0 0 0 0 0 0 0 0 0 0 0 0 0 0 0 0 0 0 0 0 0 0 0 0 0 0 0 0 0 0 0 0 0 0 0 0
-0 -0 -0 0 0 0 0 0 0 0 0 0 0 0 0 0 0 0 0 0 0 0 0 0 0 0 0 0 0 0 0 0 0 0 0 0 0 0 0 0 0 0 0 0
-0 -0 -0 -0 -0 -0 -0 0 0 0 0 0 0 0 0 0 0 0 0 0 0 0 0 0 0 0 0 0 0 0 0 0 0 0 0 0 0 0 0 0 0 0 0 0
0 -0 -0 -0 -0 -0 -0 -0 0 0 0 0 0 0 0 0 0 0 0 0 0 0 0 0 0 0 0 0 0 0 0 0 0 0 0 0 0 0 0 0 0 0 0 0
Wind_Speed_500mb
8 5 4 7 13 28 36 42 21 63 48 36 29 33 45 66 81 86 62 36 32 24 14 8 5 5 5 4 5 8 12 16 22 29 38 45 51 56 57 57 56 52 50 50
6 10 12 18 33 20 32 38 48 47 60 5 45 57 58 67 71 76 76 50 43 32 26 18 18 17 16 16 18 21 25 27 29 30 32 34 37 39 41 45 49 51 52 52
8 7 7 15 34 36 35 38 31 43 76 38 42 37 49 70 71 73 82 61 59 49 37 31 30 28 27 29 29 30 33 34 36 36 35 34 33 32 31 30 30 30 31 35
5 7 4 13 12 23 36 36 42 52 72 67 70 78 82 86 79 75 77 86 63 62 54 47 42 38 36 36 35 34 37 37 35 32 30 29 28 26 23 21 21 22 22 25
7 9 16 35 10 11 15 29 38 52 62 85 78 64 100 113 92 99 97 97 84 71 67 55 49 41 39 39 34 32 31 31 30 29 27 26 23 21 19 16 15 15 15 17
7 9 14 51 17 44 12 37 22 39 51 61 37 27 51 79 80 102 104 90 90 74 65 61 53 46 41 37 35 31 26 24 22 20 20 19 18 15 14 14 15 15 14 12
22 6 20 10 18 27 15 54 13 36 55 54 28 51 96 50 44 53 73 84 79 57 62 60 52 45 39 35 33 28 22 17 13 11 10 9 8 9 7 6 7 6 6 3
10 10 26 8 13 38 19 46 48 42 42 47 65 76 86 80 72 44 55 62 59 60 61 54 46 40 36 34 30 23 17 14 11 10 9 8 6 3 3 5 5 4 3 2
19 17 2 9 3 11 28 37 43 62 73 65 70 76 66 67 60 58 51 53 55 57 55 48 43 39 35 31 28 26 24 21 17 13 10 8 6 4 4 3 4 4 4 3
5 4 9 16 9 23 49 50 57 64 69 68 58 67 68 57 57 57 56 57 55 52 47 42 39 39 37 36 34 31 27 22 17 12 8 6 4 3 2 1 1 2 3 3
13 0 41 17 22 56 78 66 66 61 60 63 50 53 46 40 44 52 54 54 50 45 42 40 40 42 42 39 36 29 26 22 18 15 12 8 6 5 4 3 4 6 8 9
6 14 11 32 48 69 62 70 73 67 72 50 35 37 34 33 37 46 48 47 46 44 43 43 43 40 39 35 32 28 24 22 20 18 15 12 10 7 7 7 10 11 11 9
16 48 47 69 52 31 67 73 64 54 54 44 26 24 28 25 34 38 38 40 40 41 38 38 38 37 37 33 30 29 25 24 22 20 18 16 14 10 10 8 8 7 7 6
36 35 21 21 36 63 65 60 48 37 36 27 18 18 22 32 36 36 37 37 38 38 41 39 37 34 33 33 30 29 27 26 24 22 21 19 16 13 11 10 8 7 5 5
17 30 41 39 50 50 48 43 33 25 20 11 5 19 26 33 35 35 34 35 36 35 36 32 33 32 30 28 26 26 26 26 25 22 21 18 17 13 10 8 5 4 4 4
48 40 20 31 40 42 40 35 28 24 18 10 11 20 26 31 35 36 35 33 31 32 31 31 31 30 28 26 24 25 26 26 23 19 17 15 14 13 9 7 5 3 3 5
44 44 46 42 43 40 34 28 23 20 14 8 13 22 27 30 33 33 32 31 29 30 30 31 32 30 26 24 20 20 20 20 19 17 16 15 12 9 7 8 10 12 14 18
28 31 32 36 41 35 28 22 18 14 15 15 16 17 24 29 35 37 35 33 31 30 31 31 33 28 22 20 17 16 15 14 13 13 10 7 5 7 10 13 17 20 24 27
21 23 23 23 23 22 22 21 20 15 12 18 21 25 28 30 32 35 33 31 32 32 33 31 29 24 20 17 16 15 13 12 12 13 14 15 18 20 23 25 28 31 32 34
16 16 18 18 19 21 22 21 19 18 20 21 24 28 32 34 33 33 27 29 30 28 23 19 17 15 13 11 12 14 17 20 21 24 26 27 27 28 30 33 34 36 38 41
18 18 19 22 24 22 23 22 21 22 23 23 25 27 27 26 27 25 23 23 25 20 16 13 11 10 12 16 22 27 30 31 31 31 31 33 34 36 38 40 42 45 46 48
20 21 22 22 21 22 23 22 22 21 23 25 24 22 18 17 16 17 21 22 19 18 17 17 18 21 23 27 28 30 33 36 38 40 42 44 46 48 49 51 52 54 55 56
19 20 20 20 21 22 20 19 22 23 23 25 26 26 24 22 20 22 19 22 22 24 26 27 30 32 32 33 34 36 37 40 42 44 47 49 52 54 57 58 59 60 62 62
17 17 17 18 19 16 18 23 25 26 27 27 27 27 26 25 24 28 28 29 28 27 28 29 31 34 36 38 40 42 44 47 49 51 54 56 58 60 62 63 65 66 67 68
15 17 18 19 20 21 22 22 21 22 23 23 23 24 26 28 29 29 30 31 32 34 34 36 39 41 44 47 50 52 54 56 59 61 63 65 67 68 69 69 71 73 73 73
14 15 15 16 18 19 19 20 21 22 21 19 23 24 26 29 32 35 37 39 41 43 45 47 48 50 52 55 57 59 61 63 64 66 68 70 72 74 76 76 77 78 78 79
15 13 13 14 14 15 18 20 23 26 30 33 32 33 36 38 40 43 45 48 49 50 52 53 55 57 59 61 63 64 65 67 68 71 73 75 76 78 80 81 82 83 84 85
Wind_Direction_500mb
243 278 22 212 199 211 213 235 226 257 264 260 260 267 267 274 280 287 286 266 256 253 237 240 213 195 204 215 237 255 261 263 262 260 259 256 255 255 256 257 258 257 258 261
217 226 242 267 262 265 254 241 240 259 269 107 270 269 269 269 270 269 275 259 244 250 249 246 245 246 252 259 266 271 271 269 267 264 259 257 257 256 256 256 255 255 253 252
254 192 156 282 240 237 248 241 251 251 257 275 272 280 268 264 262 267 273 263 246 239 244 246 243 250 262 270 274 276 274 270 266 265 265 264 263 262 261 259 257 252 250 247
198 44 278 257 188 208 232 248 243 254 263 268 267 269 272 264 259 261 263 270 249 245 239 236 238 245 258 267 271 276 276 272 269 264 259 256 255 255 254 253 251 249 245 248
152 191 291 286 230 176 192 251 231 244 258 265 267 272 267 260 258 257 253 253 264 248 247 237 235 246 261 265 270 274 268 262 259 257 256 255 252 249 249 248 251 255 258 261
110 145 230 269 191 220 188 267 226 237 255 262 255 249 262 271 259 253 249 248 252 258 231 222 229 240 244 252 262 265 263 258 251 243 241 243 243 241 239 231 245 251 253 263
230 233 278 265 190 173 206 256 200 253 270 292 253 240 259 276 282 262 251 244 242 236 219 217 223 228 235 247 252 253 248 239 229 220 212 209 211 221 213 212 217 241 261 258
197 195 264 7 212 211 325 323 330 310 299 313 300 299 273 263 260 262 244 233 226 211 207 211 216 222 231 235 235 222 205 181 172 162 157 153 157 169 196 199 206 218 252 306
181 210 54 30 86 345 341 325 322 323 313 312 303 300 301 262 252 241 232 219 207 203 203 204 208 213 216 214 198 176 160 156 152 152 153 160 164 180 193 215 230 232 226 242
356 228 345 313 328 341 342 332 324 318 312 311 310 300 287 265 239 220 208 204 204 202 199 199 197 195 190 186 173 167 159 157 154 145 139 137 149 166 172 296 325 311 330 310
272 339 334 179 350 335 326 321 319 311 312 310 313 303 282 252 227 210 201 194 194 194 191 188 186 185 180 175 168 165 162 157 153 154 151 147 139 113 97 101 71 63 57 49
264 21 307 286 309 326 326 324 323 320 315 306 315 290 266 234 206 190 185 182 182 181 181 176 173 177 174 171 165 163 162 154 149 147 141 132 123 110 92 68 58 47 39 30
279 300 296 297 311 303 314 319 319 314 308 302 292 258 235 200 178 174 174 171 171 170 169 167 164 168 164 161 159 156 155 149 144 141 135 130 119 108 84 73 52 50 45 27
298 305 308 306 318 319 318 317 315 307 309 306 265 224 189 174 159 157 160 160 159 162 158 159 160 161 157 155 153 152 151 148 144 143 140 133 128 121 102 81 61 48 50 51
281 296 300 298 313 317 319 321 322 327 330 327 166 159 155 149 145 147 146 146 150 149 148 148 145 145 146 143 143 144 143 141 139 139 134 129 121 110 100 106 115 119 116 79
317 325 316 310 318 322 331 337 344 343 349 346 99 132 138 139 140 139 137 134 139 137 132 131 132 132 132 132 139 143 144 138 134 132 123 112 103 103 109 116 101 77 14 334
329 338 336 327 330 333 338 344 353 2 7 31 94 110 124 131 133 127 123 122 126 125 119 119 117 118 120 121 126 131 125 124 121 109 95 84 76 67 48 15 357 334 319 317
326 327 326 319 320 329 342 356 11 23 48 58 72 99 112 121 118 113 109 108 109 109 108 106 105 104 105 106 101 94 90 87 85 80 76 62 19 340 326 317 306 304 307 310
339 340 337 334 339 349 2 18 28 36 73 92 105 107 103 99 97 96 94 99 99 100 92 89 88 86 83 79 68 52 36 26 16 5 350 332 323 317 310 305 303 305 307 307
355 355 356 360 13 23 34 43 49 58 71 86 95 103 103 102 101 102 105 106 95 87 85 78 70 61 48 20 3 356 350 347 344 339 330 319 312 308 306 305 305 305 305 306
15 16 18 27 30 34 43 52 61 70 74 80 83 82 80 80 78 75 74 73 68 66 60 49 30 13 355 349 345 341 336 329 321 316 312 308 305 303 302 302 302 302 302 301
26 27 29 34 31 38 44 49 55 59 62 64 67 68 68 71 68 57 47 39 32 24 13 1 350 340 333 327 323 318 314 313 310 308 306 305 304 304 304 303 302 300 299 299
31 32 31 33 34 34 34 40 48 47 49 50 50 47 39 34 32 22 21 14 6 358 354 348 340 334 328 322 317 313 312 311 310 310 309 308 308 307 306 306 304 303 301 299
34 34 32 31 30 29 35 38 35 34 35 36 35 32 26 19 12 10 4 359 354 347 341 336 331 327 324 320 317 315 313 311 309 309 307 306 305 303 302 302 300 299 298 297
33 32 28 26 27 28 27 27 26 27 26 24 22 18 11 3 356 351 346 342 337 333 330 326 322 320 318 315 314 312 311 310 309 308 306 304 303 301 299 298 296 295 294 292
31 32 30 27 25 23 20 16 14 10 7 9 3 357 349 342 336 333 332 330 327 326 324 322 320 318 316 314 312 311 310 309 307 306 304 303 301 301 299 298 296 294 293 292
22 24 18 11 4 357 352 353 353 351 349 348 349 343 338 334 331 329 328 327 324 323 321 320 319 317 315 313 311 310 309 308 306 304 302 301 300 299 298 297 295 294 293 292
Wind_Speed_850mb
8 5 4 7 13 28 36 42 21 63 48 36 29 33 45 66 81 86 62 36 32 24 14 8 5 5 5 4 5 8 12 16 22 29 38 45 51 56 57 57 56 52 50 50
6 10 12 18 33 20 32 38 48 47 60 5 45 57 58 67 71 76 76 50 43 32 26 18 18 17 16 16 18 21 25 27 29 30 32 34 37 39 41 45 49 51 52 52
8 7 7 15 34 36 35 38 31 43 76 38 42 37 49 70 71 73 82 61 59 49 37 31 30 28 27 29 29 30 33 34 36 36 35 34 33 32 31 30 30 30 31 35
5 7 4 13 12 23 36 36 42 52 72 67 70 78 82 86 79 75 77 86 63 62 54 47 42 38 36 36 35 34 37 37 35 32 30 29 28 26 23 21 21 22 22 25
7 9 16 35 10 11 15 29 38 52 62 85 78 64 100 113 92 99 97 97 84 71 67 55 49 41 39 39 34 32 31 31 30 29 27 26 23 21 19 16 15 15 15 17
7 9 14 51 17 44 12 37 22 39 51 61 37 27 51 79 80 102 104 90 90 74 65 61 53 46 41 37 35 31 26 24 22 20 20 19 18 15 14 14 15 15 14 12
22 6 20 10 18 27 15 54 13 36 55 54 28 51 96 50 44 53 73 84 79 57 62 60 52 45 39 35 33 28 22 17 13 11 10 9 8 9 7 6 7 6 6 3
10 10 26 8 13 38 19 46 48 42 42 47 65 76 86 80 72 44 55 62 59 60 61 54 46 40 36 34 30 23 17 14 11 10 9 8 6 3 3 5 5 4 3 2
19 17 2 9 3 11 28 37 43 62 73 65 70 76 66 67 60 58 51 53 55 57 55 48 43 39 35 31 28 26 24 21 17 13 10 8 6 4 4 3 4 4 4 3
5 4 9 16 9 23 49 50 57 64 69 68 58 67 68 57 57 57 56 57 55 52 47 42 39 39 37 36 34 31 27 22 17 12 8 6 4 3 2 1 1 2 3 3
13 0 41 17 22 56 78 66 66 61 60 63 50 53 46 40 44 52 54 54 50 45 42 40 40 42 42 39 36 29 26 22 18 15 12 8 6 5 4 3 4 6 8 9
6 14 11 32 48 69 62 70 73 67 72 50 35 37 34 33 37 46 48 47 46 44 43 43 43 40 39 35 32 28 24 22 20 18 15 12 10 7 7 7 10 11 11 9
16 48 47 69 52 31 67 73 64 54 54 44 26 24 28 25 34 38 38 40 40 41 38 38 38 37 37 33 30 29 25 24 22 20 18 16 14 10 10 8 8 7 7 6
36 35 21 21 36 63 65 60 48 37 36 27 18 18 22 32 36 36 37 37 38 38 41 39 37 34 33 33 30 29 27 26 24 22 21 19 16 13 11 10 8 7 5 5
17 30 41 39 50 50 48 43 33 25 20 11 5 19 26 33 35 35 34 35 36 35 36 32 33 32 30 28 26 26 26 26 25 22 21 18 17 13 10 8 5 4 4 4
48 40 20 31 40 42 40 35 28 24 18 10 11 20 26 31 35 36 35 33 31 32 31 31 31 30 28 26 24 25 26 26 23 19 17 15 14 13 9 7 5 3 3 5
44 44 46 42 43 40 34 28 23 20 14 8 13 22 27 30 33 33 32 31 29 30 30 31 32 30 26 24 20 20 20 20 19 17 16 15 12 9 7 8 10 12 14 18
28 31 32 36 41 35 28 22 18 14 15 15 16 17 24 29 35 37 35 33 31 30 31 31 33 28 22 20 17 16 15 14 13 13 10 7 5 7 10 13 17 20 24 27
21 23 23 23 23 22 22 21 20 15 12 18 21 25 28 30 32 35 33 31 32 32 33 31 29 24 20 17 16 15 13 12 12 13 14 15 18 20 23 25 28 31 32 34
16 16 18 18 19 21 22 21 19 18 20 21 24 28 32 34 33 33 27 29 30 28 23 19 17 15 13 11 12 14 17 20 21 24 26 27 27 28 30 33 34 36 38 41
18 18 19 22 24 22 23 22 21 22 23 23 25 27 27 26 27 25 23 23 25 20 16 13 11 10 12 16 22 27 30 31 31 31 31 33 34 36 38 40 42 45 46 48
20 21 22 22 21 22 23 22 22 21 23 25 24 22 18 17 16 17 21 22 19 18 17 17 18 21 23 27 28 30 33 36 38 40 42 44 46 48 49 51 52 54 55 56
19 20 20 20 21 22 20 19 22 23 23 25 26 26 24 22 20 22 19 22 22 24 26 27 30 32 32 33 34 36 37 40 42 44 47 49 52 54 57 58 59 60 62 62
17 17 17 18 19 16 18 23 25 26 27 27 27 27 26 25 24 28 28 29 28 27 28 29 31 34 36 38 40 42 44 47 49 51 54 56 58 60 62 63 65 66 67 68
15 17 18 19 20 21 22 22 21 22 23 23 23 24 26 28 29 29 30 31 32 34 34 36 39 41 44 47 50 52 54 56 59 61 63 65 67 68 69 69 71 73 73 73
14 15 15 16 18 19 19 20 21 22 21 19 23 24 26 29 32 35 37 39 41 43 45 47 48 50 52 55 57 59 61 63 64 66 68 70 72 74 76 76 77 78 78 79
15 13 13 14 14 15 18 20 23 26 30 33 32 33 36 38 40 43 45 48 49 50 52 53 55 57 59 61 63 64 65 67 68 71 73 75 76 78 80 81 82 83 84 85
Wind_Direction_850mb
243 278 22 212 199 211 213 235 226 257 264 260 260 267 267 274 280 287 286 266 256 253 237 240 213 195 204 215 237 255 261 263 262 260 259 256 255 255 256 257 258 257 258 261
217 226 242 267 262 265 254 241 240 259 269 107 270 269 269 269 270 269 275 259 244 250 249 246 245 246 252 259 266 271 271 269 267 264 259 257 257 256 256 256 255 255 253 252
254 192 156 282 240 237 248 241 251 251 257 275 272 280 268 264 262 267 273 263 246 239 244 246 243 250 262 270 274 276 274 270 266 265 265 264 263 262 261 259 257 252 250 247
198 44 278 257 188 208 232 248 243 254 263 268 267 269 272 264 259 261 263 270 249 245 239 236 238 245 258 267 271 276 276 272 269 264 259 256 255 255 254 253 251 249 245 248
152 191 291 286 230 176 192 251 231 244 258 265 267 272 267 260 258 257 253 253 264 248 247 237 235 246 261 265 270 274 268 262 259 257 256 255 252 249 249 248 251 255 258 261
110 145 230 269 191 220 188 267 226 237 255 262 255 249 262 271 259 253 249 248 252 258 231 222 229 240 244 252 262 265 263 258 251 243 241 243 243 241 239 231 245 251 253 263
230 233 278 265 190 173 206 256 200 253 270 292 253 240 259 276 282 262 251 244 242 236 219 217 223 228 235 247 252 253 248 239 229 220 212 209 211 221 213 212 217 241 261 258
197 195 264 7 212 211 325 323 330 310 299 313 300 299 273 263 260 262 244 233 226 211 207 211 216 222 231 235 235 222 205 181 172 162 157 153 157 169 196 199 206 218 252 306
181 210 54 30 86 345 341 325 322 323 313 312 303 300 301 262 252 241 232 219 207 203 203 204 208 213 216 214 198 176 160 156 152 152 153 160 164 180 193 215 230 232 226 242
356 228 345 313 328 341 342 332 324 318 312 311 310 300 287 265 239 220 208 204 204 202 199 199 197 195 190 186 173 167 159 157 154 145 139 137 149 166 172 296 325 311 330 310
272 339 334 179 350 335 326 321 319 311 312 310 313 303 282 252 227 210 201 194 194 194 191 188 186 185 180 175 168 165 162 157 153 154 151 147 139 113 97 101 71 63 57 49
264 21 307 286 309 326 326 324 323 320 315 306 315 290 266 234 206 190 185 182 182 181 181 176 173 177 174 171 165 163 162 154 149 147 141 132 123 110 92 68 58 47 39 30
279 300 296 297 311 303 314 319 319 314 308 302 292 258 235 200 178 174 174 171 171 170 169 167 164 168 164 161 159 156 155 149 144 141 135 130 119 108 84 73 52 50 45 27
298 305 308 306 318 319 318 317 315 307 309 306 265 224 189 174 159 157 160 160 159 162 158 159 160 161 157 155 153 152 151 148 144 143 140 133 128 121 102 81 61 48 50 51
281 296 300 298 313 317 319 321 322 327 330 327 166 159 155 149 145 147 146 146 150 149 148 148 145 145 146 143 143 144 143 141 139 139 134 129 121 110 100 106 115 119 116 79
317 325 316 310 318 322 331 337 344 343 349 346 99 132 138 139 140 139 137 134 139 137 132 131 132 132 132 132 139 143 144 138 134 132 123 112 103 103 109 116 101 77 14 334
329 338 336 327 330 333 338 344 353 2 7 31 94 110 124 131 133 127 123 122 126 125 119 119 117 118 120 121 126 131 125 124 121 109 95 84 76 67 48 15 357 334 319 317
326 327 326 319 320 329 342 356 11 23 48 58 72 99 112 121 118 113 109 108 109 109 108 106 105 104 105 106 101 94 90 87 85 80 76 62 19 340 326 317 306 304 307 310
339 340 337 334 339 349 2 18 28 36 73 92 105 107 103 99 97 96 94 99 99 100 92 89 88 86 83 79 68 52 36 26 16 5 350 332 323 317 310 305 303 305 307 307
355 355 356 360 13 23 34 43 49 58 71 86 95 103 103 102 101 102 105 106 95 87 85 78 70 61 48 20 3 356 350 347 344 339 330 319 312 308 306 305 305 305 305 306
15 16 18 27 30 34 43 52 61 70 74 80 83 82 80 80 78 75 74 73 68 66 60 49 30 13 355 349 345 341 336 329 321 316 312 308 305 303 302 302 302 302 302 301
26 27 29 34 31 38 44 49 55 59 62 64 67 68 68 71 68 57 47 39 32 24 13 1 350 340 333 327 323 318 314 313 310 308 306 305 304 304 304 303 302 300 299 299
31 32 31 33 34 34 34 40 48 47 49 50 50 47 39 34 32 22 21 14 6 358 354 348 340 334 328 322 317 313 312 311 310 310 309 308 308 307 306 306 304 303 301 299
34 34 32 31 30 29 35 38 35 34 35 36 35 32 26 19 12 10 4 359 354 347 341 336 331 327 324 320 317 315 313 311 309 309 307 306 305 303 302 302 300 299 298 297
33 32 28 26 27 28 27 27 26 27 26 24 22 18 11 3 356 351 346 342 337 333 330 326 322 320 318 315 314 312 311 310 309 308 306 304 303 301 299 298 296 295 294 292
31 32 30 27 25 23 20 16 14 10 7 9 3 357 349 342 336 333 332 330 327 326 324 322 320 318 316 314 312 311 310 309 307 306 304 303 301 301 299 298 296 294 293 292
22 24 18 11 4 357 352 353 353 351 349 348 349 343 338 334 331 329 328 327 324 323 321 320 319 317 315 313 311 310 309 308 306 304 302 301 300 299 298 297 295 294 293 292